Location: *
(49.7137°S, 177.5180°W)
Time: 21:47:38
(UTC+00:00)

Daily predictions for brighter satellites

Satellite Brightness Start Highest point End
(mag) Time Altitude Azimuth Time Altitude Azimuth Time Altitude Azimuth
Cosmos 2263 Rocket 4.3 15:22:53 21° ENE 15:22:53 21° ENE 15:24:55 10° ENE
Cosmos 1980 Rocket 3.8 15:35:06 31° E 15:35:06 31° E 15:39:00 10° SE
SL-16 R/B 4.4 15:47:39 10° SSE 15:49:28 20° S 15:49:28 20° S
SeaSat 1 3.3 16:09:56 10° NE 16:14:03 48° E 16:14:03 48° E
S3M 4.1 16:17:53 40° S 16:20:17 72° ESE 16:26:34 10° NNE
SL-16 R/B 4.4 16:21:10 10° NNE 16:25:33 23° ENE 16:29:58 10° SE
USA 234 3.1 16:19:08 10° ESE 16:25:47 89° SSW 16:26:20 77° WNW
Cosmos 1697 Rocket 3.7 16:30:03 34° S 16:30:03 34° S 16:33:25 10° SSE
Cosmos 2266 Rocket 4.1 16:31:02 10° N 16:37:06 71° E 16:43:12 10° SSE
Cosmos 1417 Rocket 4.4 16:41:05 69° WSW 16:41:32 72° W 16:47:54 10° N
Cosmos 1844 Rocket 4.0 16:38:48 23° S 16:41:38 36° SE 16:46:46 10° ENE
Blok-L 3.9 16:42:20 73° NE 16:42:20 73° NE 16:48:57 10° NE
SMAP 3.8 16:37:47 10° NE 16:42:21 52° ESE 16:44:17 31° S
Exosat Rocket 3.9 16:42:08 47° S 16:43:24 64° ESE 16:49:02 10° NE
Cosmos 839 Rocket 4.5 16:42:54 55° WSW 16:43:40 58° SW 16:50:23 10° SE
Blok-ML 4.3 16:53:40 77° SSW 16:53:59 88° SE 17:05:26 10° NE
SJ-11-01 4.4 16:49:54 10° NNE 16:54:37 75° ESE 16:56:12 42° S
Cosmos-2242 4.5 16:53:06 10° NNE 16:57:10 38° E 17:01:19 10° SSE
Cosmos 2369 3.6 16:58:24 63° W 16:58:58 67° WSW 17:04:44 10° SSE
BREEZE-M DEB (TANK) 3.0 17:00:04 44° ENE 17:00:04 44° ENE 17:01:48 10° E
DNEPR-1 R/B 3.5 17:02:35 68° SSE 17:02:45 69° SE 17:06:55 10° NE
Cosmos 2263 Rocket 2.6 17:04:37 43° NW 17:04:37 43° NW 17:09:05 10° N
Cosmos 2278 3.8 17:02:56 10° NNW 17:08:38 77° ENE 17:14:25 10° SSE
Genesis I 4.4 17:11:30 30° N 17:11:30 30° N 17:13:42 10° NNE
ARGOS 3.2 17:06:12 10° N 17:11:35 58° W 17:13:08 43° SW
Cosmos 883 Rocket 4.3 17:06:50 10° SSW 17:13:00 70° W 17:19:07 10° N
Cosmos 1544 4.2 17:13:48 22° SSE 17:15:36 39° ESE 17:18:51 10° NNE
Cosmos 1992 Rocket 4.3 17:13:05 21° SSW 17:16:39 65° ESE 17:21:51 10° NE
Cosmos 1980 Rocket 2.4 17:16:55 45° W 17:17:44 49° SW 17:23:20 10° SSE
CBERS 1 LM4 rocket 4.4 17:14:15 10° NNE 17:19:08 83° ESE 17:23:03 16° SSW
CZ-4 R/B 4.4 17:18:29 10° ESE 17:19:50 11° SE 17:21:11 10° SE
Cosmos 1666 3.8 17:16:51 14° S 17:19:52 41° ESE 17:23:24 10° NNE
SL-24 R/B 4.4 17:16:17 10° NNE 17:20:56 86° WNW 17:26:30 10° SSW
AQUARIUS 4.0 17:24:04 10° N 17:28:35 75° WNW 17:31:36 21° SSW
Cosmos 2315 Rocket 4.0 17:23:41 10° SSW 17:29:51 59° W 17:35:58 10° N
CZ-2C R/B 4.0 17:26:29 10° S 17:28:52 21° SSW 17:28:52 21° SSW
Cosmos 967 Rocket 4.5 17:26:53 22° NW 17:31:13 65° SW 17:37:40 10° SE
ISS -3.8 17:34:51 65° WNW 17:35:13 73° NNW 17:38:38 10° ENE
BREEZE-M DEB (TANK) 2.2 17:35:26 40° N 17:35:44 42° NNE 17:38:46 10° E
SL-16 R/B 4.3 17:32:47 10° SSW 17:34:33 14° SSW 17:34:33 14° SSW
CZ-4B R/B 3.9 17:32:59 10° N 17:37:50 41° W 17:39:40 30° SW
Timation 2 Rocket 4.0 17:35:22 26° SW 17:38:45 57° WNW 17:44:50 10° N
YAOGAN 1 4.5 17:35:43 10° NE 17:39:28 29° ESE 17:43:15 10° S
SL-08 RB Rocket 4.2 17:37:35 10° NNW 17:41:46 37° W 17:42:34 34° WSW
Cosmos 1242 Rocket 2.6 17:43:59 46° W 17:44:02 46° W 17:47:18 10° N
Cosmos 2237 4.4 17:39:42 10° NNW 17:45:26 76° ENE 17:51:14 10° SSE
Cosmos 1655 Rocket 4.2 17:39:44 10° NNW 17:45:46 48° WSW 17:51:54 10° S
Cosmos 1602 3.5 17:44:57 16° SSW 17:47:59 80° W 17:51:46 10° N
Cosmos 1782 4.4 17:47:49 10° NNE 17:51:29 37° E 17:55:13 10° SSE
SeaSat 1 3.3 17:48:06 10° N 17:52:24 29° WNW 17:53:48 26° W
Cosmos 1461 2.6 17:51:10 30° SW 17:53:01 82° NW 17:57:00 10° NE
Cosmos 1818 3.7 17:49:20 19° WNW 17:53:08 52° SW 17:58:29 10° SE
Cosmos 1766 Rocket 4.2 17:48:55 10° S 17:53:27 59° ESE 17:57:52 10° NNE
CORIOLIS 4.5 17:48:26 10° N 17:53:34 44° W 17:58:49 10° SSW
Meteor PRIRODA 3.5 17:50:09 10° N 17:53:47 72° WNW 17:56:47 15° SSW
Cosmos 44 3.7 17:54:39 28° W 17:56:01 36° WNW 17:59:56 10° N
NOAA 6 4.0 17:51:04 10° N 17:56:15 75° WNW 18:01:30 10° SSW
Helios 1A 3.9 17:53:57 10° S 17:57:30 27° WSW 17:57:31 27° WSW
Meteor 1-20 Rocket 4.2 17:55:43 10° SSW 18:01:24 77° W 18:07:09 10° N
Cosmos 1500 3.5 18:01:15 20° SSW 18:03:25 41° W 18:06:55 10° NNW
Meteor 1-25 Rocket 4.2 18:01:45 10° SSW 18:07:30 79° W 18:13:06 10° N
USA 234 3.6 18:02:09 10° ESE 18:08:32 52° SSW 18:13:41 16° W
SL-16 R/B 2.2 18:03:27 10° NW 18:09:08 68° WSW 18:14:53 10° SSE
CZ-4B R/B 3.0 18:08:09 10° N 18:12:24 70° WNW 18:16:54 10° SSW
Cosmos 2322 Rocket 2.2 18:06:50 10° NNW 18:12:30 87° WSW 18:18:13 10° SSE
Cosmos 1697 Rocket 4.2 18:11:49 16° SW 18:13:02 16° SSW 18:16:35 10° S
Cosmos 1844 3.8 18:07:42 11° SSW 18:13:17 68° WNW 18:19:02 10° NNE
Okean O Rocket 3.5 18:10:44 10° ENE 18:14:29 28° ESE 18:18:16 10° S
DELTA 2 DEB (DPAF) 4.1 18:14:29 10° SSE 18:18:57 88° ENE 18:23:21 10° NNW
Cosmos 2360 Rocket 2.4 18:14:00 10° NNW 18:19:39 78° ENE 18:25:25 10° SSE
SMAP 4.3 18:16:20 10° NW 18:19:59 22° W 18:22:45 14° SW
Cosmos 2221 2.7 18:19:04 10° N 18:23:27 78° E 18:27:51 10° SSE
Cosmos 1844 Rocket 3.0 18:20:29 11° SW 18:25:41 48° WNW 18:31:02 10° N
Cosmos 2333 Rocket 2.6 18:26:01 10° NNW 18:31:38 70° ENE 18:37:22 10° SSE
COSMO-SKYMED 1 2.6 18:27:31 10° S 18:31:54 61° WSW 18:36:14 10° NNW
Cosmos 1269 Rocket 4.2 18:28:54 10° NW 18:34:07 52° WSW 18:39:23 10° SSE
SL-4 R/B 3.2 18:30:07 10° NW 18:34:29 50° NNE 18:39:02 10° ESE
Cosmos-2242 4.0 18:31:04 10° NW 18:34:44 25° WSW 18:38:28 10° SSW
SJ-6B 4.4 18:31:38 10° NE 18:35:02 32° ESE 18:38:27 10° S
Cosmos 1933 3.3 18:31:51 10° NNW 18:35:56 72° WSW 18:40:05 10° S
USA 81 4.1 18:38:05 10° SSW 18:43:21 60° W 18:48:33 10° N
Cosmos 2219 Rocket 2.9 18:38:16 10° N 18:43:45 59° ENE 18:49:20 10° SE
ADEOS 4.4 18:39:57 10° NNW 18:44:36 31° W 18:49:19 10° SSW
Cosmos 1812 3.1 18:42:05 10° NW 18:45:39 39° WSW 18:49:18 10° S
Landsat 4 4.5 18:44:24 10° NNW 18:47:44 32° W 18:51:07 10° SSW
CZ-4B R/B 3.4 18:45:47 10° NNE 18:51:30 84° ESE 18:57:12 10° SSW
CZ-4 R/B 1.5 18:49:53 10° NNE 18:53:54 82° ESE 18:58:04 10° SSW
Cosmos 1666 4.2 18:52:09 10° SW 18:54:36 17° W 18:57:01 10° NW
Meteor 2-20 4.5 18:48:29 10° SSW 18:54:39 74° W 19:00:45 10° N
Cosmos 1500 Rocket 4.0 18:53:10 10° S 18:57:37 69° E 19:02:01 10° NNE
NOSS 3-3 (A) 4.0 18:51:42 10° SW 18:58:21 79° NW 19:03:59 10° NE
NOSS 3-3 (C) 4.0 18:51:46 10° SW 18:58:26 80° NW 19:04:04 10° NE
Cosmos 1745 Rocket 4.0 18:53:08 10° NNW 18:59:14 61° WSW 19:05:24 10° S
PSLV R/B 3.8 18:56:41 10° N 19:00:32 65° WNW 19:04:22 10° SSW
Cosmos 1709 Rocket 4.0 18:56:14 10° N 19:02:24 84° W 19:08:43 10° S
